Henderson, KY

3:54 PM CST on November 12, 2019 (GMT -0600)
Henderson City-County

Weather History for KEHR - September, 2019

Change the Weather History Date:

Sunday, September 8, 2019

  Actual Average Record
Temperature  
Mean Temperature 67 °F -  
Max Temperature 79 °F 84 °F 104 °F (1939)
Min Temperature 55 °F 62 °F 44 °F (1944)
Cooling Degree Days 2    
Growing Degree Days 17 (Base 50)    
Moisture  
Dew Point 59 °F    
Average Humidity 89    
Maximum Humidity 100    
Minimum Humidity 62    
Precipitation  
Precipitation 0.00 in - - ()
Sea Level Pressure  
Sea Level Pressure 30.06 in    
Wind  
Wind Speed 1 mph (East)    
Max Wind Speed 6 mph    
Max Gust Speed -    
Visibility 6 miles    
Events      
Averages and records for this station are not official NWS values.
T = Trace of Precipitation, MM = Missing Value Source: NWS Daily Summary

Daily Weather History Graph

Daily Weather History Graph

Search for Another Location

Airport or City:

Astronomy

Sep. 08, 2019 Rise Set
Actual Time 6:26 AM CDT 7:09 PM CDT
Civil Twilight 5:59 AM CDT 7:36 PM CDT
Nautical Twilight 5:28 AM CDT 8:07 PM CDT
Astronomical Twilight 4:56 AM CDT 8:39 PM CDT
Moon 4:13 PM CDT (9/8) 1:10 AM CDT (9/8)
Length of Visible Light 13h 36m
Length of Day
12h 43m
Waxing Gibbous, 75% of the Moon is Illuminated
Sep 8
Waxing Gibbous
Sep 13
Full
Sep 21
Last Quarter
Sep 28
New
Oct 5
First Quarter

Hourly Weather History & Observations

Time (CDT) Temp. Dew Point Humidity Pressure Visibility Wind Dir Wind Speed Gust Speed Precip Events Conditions
12:56 AM 57.9 °F 57.0 °F 97% 30.04 in 10.0 mi Calm Calm - N/A   Clear
1:34 AM 57.2 °F 55.4 °F 94% 30.04 in 1.5 mi Calm Calm - N/A   Clear
1:45 AM 57.2 °F 57.2 °F 100% 30.04 in 3.0 mi Calm Calm - N/A   Clear
1:56 AM 57.0 °F 55.9 °F 96% 30.04 in 3.0 mi Calm Calm - N/A   Clear
2:12 AM 57.2 °F 55.4 °F 94% 30.04 in 1.5 mi Calm Calm - N/A   Clear
2:18 AM 55.4 °F 55.4 °F 100% 30.04 in 0.8 mi Calm Calm - N/A   Clear
2:45 AM 55.4 °F 55.4 °F 100% 30.03 in 1.2 mi Calm Calm - N/A   Clear
2:48 AM 55.4 °F 55.4 °F 100% 30.04 in 3.0 mi Calm Calm - N/A   Clear
2:56 AM 55.9 °F 55.9 °F 100% 30.03 in 10.0 mi Calm Calm - N/A   Clear
3:52 AM 55.4 °F 55.4 °F 100% 30.03 in 1.0 mi Calm Calm - N/A   Clear
3:56 AM 55.9 °F 55.0 °F 97% 30.03 in 0.8 mi Calm Calm - N/A   Clear
4:00 AM 55.4 °F 55.4 °F 100% 30.03 in 1.5 mi Calm Calm - N/A   Clear
4:02 AM 55.4 °F 55.4 °F 100% 30.03 in 3.0 mi Calm Calm - N/A   Clear
4:13 AM 55.4 °F 55.4 °F 100% 30.03 in 0.8 mi Calm Calm - N/A   Clear
4:27 AM 55.4 °F 55.4 °F 100% 30.03 in 1.2 mi Calm Calm - N/A   Clear
4:34 AM 55.4 °F 55.4 °F 100% 30.03 in 3.0 mi Calm Calm - N/A   Clear
4:56 AM 55.9 °F 55.0 °F 97% 30.04 in 9.0 mi Calm Calm - N/A   Clear
5:56 AM 55.0 °F 55.0 °F 100% 30.05 in 8.0 mi NNE 3.5 mph - N/A   Clear
6:29 AM 55.4 °F 55.4 °F 100% 30.06 in 2.5 mi Calm Calm - N/A   Clear
6:37 AM 57.2 °F 57.2 °F 100% 30.07 in 9.0 mi Calm Calm - N/A   Clear
6:56 AM 57.0 °F 55.9 °F 96% 30.06 in 4.0 mi Calm Calm - N/A   Clear
7:06 AM 59.0 °F 57.2 °F 94% 30.06 in 1.8 mi East 3.5 mph - N/A   Clear
7:17 AM 60.8 °F 59.0 °F 94% 30.06 in 1.0 mi ESE 3.5 mph - N/A   Clear
7:24 AM 60.8 °F 60.8 °F 100% 30.06 in 1.8 mi East 3.5 mph - N/A   Clear
7:30 AM 62.6 °F 60.8 °F 94% 30.07 in 3.0 mi Calm Calm - N/A   Clear
7:56 AM 64.9 °F 63.0 °F 93% 30.09 in 9.0 mi Calm Calm - N/A   Clear
8:56 AM 68.0 °F 62.1 °F 81% 30.08 in 10.0 mi East 4.6 mph - N/A   Clear
9:56 AM 73.0 °F 63.0 °F 71% 30.08 in 10.0 mi East 4.6 mph - N/A   Clear
10:56 AM 73.9 °F 63.0 °F 68% 30.13 in 10.0 mi NW 5.8 mph - N/A   Clear
11:56 AM 73.0 °F 62.1 °F 68% 30.12 in 10.0 mi Variable 4.6 mph - N/A   Partly Cloudy
1:15 PM 73.4 °F 62.6 °F 69% 30.08 in 10.0 mi SE 4.6 mph - N/A   Scattered Clouds
1:56 PM 73.9 °F 64.0 °F 71% 30.06 in 10.0 mi Variable 4.6 mph - 0.00 in   Clear
2:56 PM 77.0 °F 64.0 °F 64% 30.03 in 10.0 mi Variable 5.8 mph - N/A   Clear
3:56 PM 78.1 °F 64.0 °F 62% 30.04 in 10.0 mi ENE 4.6 mph - N/A   Clear
4:56 PM 79.0 °F 64.9 °F 62% 30.03 in 10.0 mi ESE 3.5 mph - N/A   Clear
5:56 PM 78.1 °F 64.9 °F 64% 30.04 in 10.0 mi East 3.5 mph - N/A   Partly Cloudy
6:56 PM 73.0 °F 66.0 °F 79% 30.05 in 10.0 mi Calm Calm - N/A   Clear
7:56 PM 70.0 °F 64.9 °F 84% 30.05 in 10.0 mi East 4.6 mph - N/A   Clear
8:56 PM 69.1 °F 64.9 °F 87% 30.08 in 10.0 mi NE 5.8 mph - N/A   Clear
9:56 PM 69.1 °F 63.0 °F 81% 30.08 in 10.0 mi East 4.6 mph - N/A   Clear
10:56 PM 66.0 °F 63.0 °F 90% 30.10 in 10.0 mi Calm Calm - N/A   Clear
11:56 PM 64.9 °F 62.1 °F 90% 30.09 in 10.0 mi ESE 3.5 mph - N/A   Clear